Madison, MN

10:33 AM CDT on May 23, 2018 (GMT -0500)
Madison-Lac Qui Parle County

Weather History for KDXX - March, 2013

Change the Weather History Date:

Saturday, March 16, 2013

  Actual Average (KAQP) Record (KAQP)
Temperature  
Mean Temperature 13 °F -  
Max Temperature 21 °F 33 °F 80 °F (2012)
Min Temperature 5 °F 16 °F -9 °F (2002)
Degree Days  
Heating Degree Days 52    
Moisture  
Dew Point 7 °F    
Average Humidity 83    
Maximum Humidity 93    
Minimum Humidity 73    
Precipitation  
Precipitation 0.00 in - - ()
Sea Level Pressure  
Sea Level Pressure 30.18 in    
Wind  
Wind Speed 15 mph (NNW)    
Max Wind Speed 21 mph    
Max Gust Speed 25 mph    
Visibility 9 miles    
Events Snow    
Averages and records for this station are not official NWS values.
T = Trace of Precipitation, MM = Missing Value Source: NWS Daily Summary

Daily Weather History Graph

Daily Weather History Graph

Search for Another Location

Airport or City:

Astronomy

Mar. 16, 2013 Rise Set
Actual Time 7:34 AM CDT 7:32 PM CDT
Civil Twilight 7:05 AM CDT 8:01 PM CDT
Nautical Twilight 6:31 AM CDT 8:35 PM CDT
Astronomical Twilight 5:56 AM CDT 9:10 PM CDT
Moon 9:51 AM CDT (3/16) No Moon Set
Length of Visible Light 12h 56m
Length of Day
11h 57m
Waxing Crescent, 23% of the Moon is Illuminated
Mar 16
Waxing Crescent
Mar 19
First Quarter
Mar 27
Full
Apr 2
Last Quarter
Apr 10
New

Hourly Weather History & Observations

Time (CDT) Temp. Windchill Dew Point Humidity Pressure Visibility Wind Dir Wind Speed Gust Speed Precip Events Conditions
12:33 AM 21.2 °F 6.8 °F 19.4 °F 93% 29.98 in 2.0 mi NNW 17.3 mph - N/A   Overcast
12:54 AM 21.2 °F 6.4 °F 19.4 °F 93% 29.98 in 2.5 mi NNW 18.4 mph - N/A   Overcast
1:14 AM 21.2 °F 5.6 °F 19.4 °F 93% 29.98 in 2.5 mi NNW 20.7 mph 25.3 mph N/A   Overcast
1:33 AM 19.4 °F 4.1 °F 17.6 °F 93% 29.98 in 4.0 mi NNW 18.4 mph - N/A   Overcast
1:54 AM 19.4 °F 4.1 °F 17.6 °F 93% 29.99 in 10.0 mi NNW 18.4 mph - N/A   Overcast
2:14 AM 19.4 °F 4.1 °F 17.6 °F 93% 30.00 in 10.0 mi NNW 18.4 mph - N/A   Overcast
2:33 AM 17.6 °F 1.7 °F 15.8 °F 93% 30.01 in 10.0 mi NNW 18.4 mph 23.0 mph N/A   Overcast
2:54 AM 17.6 °F 2.2 °F 15.8 °F 93% 30.03 in 10.0 mi NNW 17.3 mph 24.2 mph N/A   Overcast
3:14 AM 17.6 °F 1.3 °F 14.0 °F 86% 30.04 in 10.0 mi NNW 19.6 mph - N/A   Overcast
3:33 AM 17.6 °F 1.7 °F 14.0 °F 86% 30.06 in 10.0 mi NNW 18.4 mph - N/A   Overcast
3:54 AM 17.6 °F 2.2 °F 12.2 °F 79% 30.07 in 10.0 mi NNW 17.3 mph - N/A   Overcast
4:14 AM 15.8 °F 0.3 °F 12.2 °F 86% 30.07 in 10.0 mi NNW 16.1 mph - N/A   Overcast
4:33 AM 15.8 °F -1.1 °F 10.4 °F 79% 30.08 in 10.0 mi NNW 19.6 mph - N/A   Overcast
4:54 AM 14.0 °F -3.0 °F 10.4 °F 86% 30.09 in 10.0 mi NNW 18.4 mph - N/A   Overcast
5:14 AM 14.0 °F -3.4 °F 10.4 °F 86% 30.10 in 10.0 mi NNW 19.6 mph - N/A Snow Light Snow
5:33 AM 12.2 °F -4.3 °F 8.6 °F 85% 30.10 in 10.0 mi NNW 16.1 mph 20.7 mph N/A Snow Light Snow
5:54 AM 10.4 °F -8.6 °F 6.8 °F 85% 30.11 in 10.0 mi NNW 20.7 mph - N/A Snow Light Snow
6:14 AM 10.4 °F -8.6 °F 6.8 °F 85% 30.13 in 10.0 mi NNW 20.7 mph - N/A Snow Light Snow
6:33 AM 10.4 °F -7.7 °F 6.8 °F 85% 30.15 in 10.0 mi NW 18.4 mph 21.9 mph N/A   Overcast
6:54 AM 8.6 °F -9.5 °F 5.0 °F 85% 30.16 in 10.0 mi NNW 17.3 mph - N/A   Overcast
7:13 AM 8.6 °F -8.9 °F 3.2 °F 79% 30.17 in 10.0 mi NW 16.1 mph - N/A   Scattered Clouds
7:33 AM 6.8 °F -11.3 °F 3.2 °F 85% 30.18 in 10.0 mi NNW 16.1 mph 19.6 mph N/A   Mostly Cloudy
7:54 AM 6.8 °F -11.3 °F 1.4 °F 79% 30.19 in 10.0 mi NW 16.1 mph - N/A   Overcast
8:13 AM 5.0 °F -11.6 °F 1.4 °F 85% 30.19 in 10.0 mi NW 12.7 mph 18.4 mph N/A   Mostly Cloudy
8:54 AM 5.0 °F -11.6 °F -0.4 °F 78% 30.20 in 10.0 mi NW 12.7 mph 17.3 mph N/A   Clear
9:13 AM 5.0 °F -11.6 °F 1.4 °F 85% 30.21 in 10.0 mi NW 12.7 mph - N/A   Clear
9:33 AM 5.0 °F -11.6 °F 1.4 °F 85% 30.21 in 10.0 mi NNW 12.7 mph 18.4 mph N/A   Clear
9:54 AM 6.8 °F -6.9 °F 1.4 °F 79% 30.22 in 10.0 mi NW 9.2 mph - N/A   Clear
10:13 AM 6.8 °F -8.6 °F 1.4 °F 79% 30.23 in 10.0 mi NW 11.5 mph - N/A   Clear
10:33 AM 6.8 °F -8.6 °F 1.4 °F 79% 30.23 in 10.0 mi NW 11.5 mph - N/A   Clear
10:54 AM 6.8 °F -8.6 °F 3.2 °F 85% 30.23 in 10.0 mi NW 11.5 mph - N/A   Clear
11:14 AM 8.6 °F -6.3 °F 3.2 °F 79% 30.22 in 10.0 mi NNW 11.5 mph - N/A   Clear
11:33 AM 8.6 °F -5.5 °F 5.0 °F 85% 30.23 in 10.0 mi NNW 10.4 mph - N/A   Clear
11:54 AM 8.6 °F -7.0 °F 5.0 °F 85% 30.23 in 10.0 mi NNW 12.7 mph - N/A   Clear
12:13 PM 10.4 °F -4.8 °F 6.8 °F 85% 30.22 in 10.0 mi NNW 12.7 mph - N/A   Clear
12:33 PM 10.4 °F -5.4 °F 6.8 °F 85% 30.22 in 10.0 mi NNW 13.8 mph - N/A   Clear
12:54 PM 12.2 °F -2.5 °F 6.8 °F 79% 30.23 in 10.0 mi North 12.7 mph - N/A   Clear
1:14 PM 12.2 °F -1.8 °F 6.8 °F 79% 30.23 in 10.0 mi North 11.5 mph - N/A   Clear
1:33 PM 12.2 °F -3.1 °F 8.6 °F 85% 30.22 in 10.0 mi North 13.8 mph - N/A   Scattered Clouds
1:54 PM 12.2 °F -2.5 °F 8.6 °F 85% 30.22 in 7.0 mi North 12.7 mph - N/A   Scattered Clouds
2:14 PM 12.2 °F -2.5 °F 8.6 °F 85% 30.22 in 7.0 mi North 12.7 mph - N/A Snow Light Snow
2:33 PM 12.2 °F -1.8 °F 8.6 °F 85% 30.21 in 7.0 mi North 11.5 mph - N/A   Mostly Cloudy
2:54 PM 12.2 °F -1.8 °F 8.6 °F 85% 30.20 in 5.0 mi NNW 11.5 mph - N/A Snow Light Snow
3:14 PM 12.2 °F -2.5 °F 8.6 °F 85% 30.20 in 7.0 mi North 12.7 mph - N/A Snow Light Snow
3:33 PM 14.0 °F -0.2 °F 8.6 °F 79% 30.20 in 5.0 mi North 12.7 mph - N/A Snow Light Snow
3:54 PM 14.0 °F -0.2 °F 8.6 °F 79% 30.20 in 4.0 mi NNW 12.7 mph - N/A Snow Light Snow
4:14 PM 14.0 °F -0.2 °F 8.6 °F 79% 30.18 in 7.0 mi NNW 12.7 mph - N/A Snow Light Snow
4:33 PM 14.0 °F -0.8 °F 8.6 °F 79% 30.20 in 4.0 mi NNW 13.8 mph - N/A Snow Light Snow
4:54 PM 14.0 °F -0.8 °F 8.6 °F 79% 30.21 in 10.0 mi NNW 13.8 mph - N/A   Overcast
5:14 PM 14.0 °F -0.8 °F 8.6 °F 79% 30.21 in 7.0 mi NNW 13.8 mph - N/A Snow Light Snow
5:33 PM 12.2 °F -2.5 °F 6.8 °F 79% 30.20 in 7.0 mi North 12.7 mph - N/A Snow Light Snow
5:54 PM 12.2 °F -1.0 °F 6.8 °F 79% 30.21 in 10.0 mi NNW 10.4 mph - N/A   Mostly Cloudy
6:14 PM 12.2 °F -1.0 °F 6.8 °F 79% 30.21 in 10.0 mi NNW 10.4 mph - N/A   Clear
6:34 PM 12.2 °F -2.5 °F 6.8 °F 79% 30.22 in 10.0 mi North 12.7 mph - N/A   Clear
6:54 PM 12.2 °F -1.0 °F 6.8 °F 79% 30.22 in 10.0 mi NNW 10.4 mph - N/A   Clear
7:13 PM 12.2 °F -1.0 °F 6.8 °F 79% 30.23 in 10.0 mi NNW 10.4 mph - N/A   Clear
7:34 PM 12.2 °F -1.8 °F 6.8 °F 79% 30.24 in 10.0 mi NNW 11.5 mph - N/A   Clear
7:54 PM 10.4 °F -2.4 °F 6.8 °F 85% 30.25 in 10.0 mi NNW 9.2 mph - N/A   Clear
8:13 PM 10.4 °F -3.3 °F 5.0 °F 79% 30.25 in 10.0 mi North 10.4 mph - N/A   Clear
8:34 PM 10.4 °F -4.1 °F 5.0 °F 79% 30.25 in 10.0 mi North 11.5 mph - N/A   Clear
8:53 PM 10.4 °F -3.3 °F 3.2 °F 73% 30.26 in 10.0 mi North 10.4 mph - N/A   Clear
9:13 PM 8.6 °F -6.3 °F 3.2 °F 79% 30.26 in 10.0 mi North 11.5 mph - N/A   Clear
9:34 PM 8.6 °F -4.7 °F 3.2 °F 79% 30.26 in 10.0 mi North 9.2 mph - N/A   Clear
9:53 PM 8.6 °F -3.7 °F 3.2 °F 79% 30.27 in 10.0 mi North 8.1 mph - N/A   Clear
10:14 PM 8.6 °F -2.6 °F 3.2 °F 79% 30.28 in 10.0 mi North 6.9 mph - N/A   Clear
10:34 PM 8.6 °F -2.6 °F 3.2 °F 79% 30.28 in 10.0 mi North 6.9 mph - N/A   Clear
10:53 PM 8.6 °F -2.6 °F 1.4 °F 73% 30.28 in 10.0 mi North 6.9 mph - N/A   Clear
11:14 PM 6.8 °F -5.9 °F 1.4 °F 79% 30.28 in 10.0 mi North 8.1 mph - N/A   Clear
11:34 PM 6.8 °F -4.8 °F 1.4 °F 79% 30.28 in 10.0 mi North 6.9 mph - N/A   Clear
11:53 PM 6.8 °F -5.9 °F 1.4 °F 79% 30.27 in 10.0 mi North 8.1 mph - N/A   Clear